Weather History for KMEZ - December, 2013

Change the Weather History Date:

Thursday, December 12, 2013

  Actual Average (KDEQ) Record (KDEQ)
Temperature  
Mean Temperature 34 °F 43 °F  
Max Temperature 46 °F 56 °F 78 °F (1996)
Min Temperature 23 °F 31 °F 12 °F (1962)
Degree Days  
Heating Degree Days 30 22  
Month to date heating degree days 249  
Since 1 July heating degree days 775  
Cooling Degree Days 0 0  
Month to date cooling degree days 0  
Year to date cooling degree days 1941  
Moisture  
Dew Point 26 °F    
Average Humidity 80    
Maximum Humidity 100    
Minimum Humidity 32    
Precipitation  
Precipitation 0.00 in 0.12 in 2.75 in (1954)
Month to date precipitation 1.47  
Year to date precipitation 46.10  
Snow  
Snow 0.00 in - - ()
Month to date snowfall  
Since 1 July snowfall  
Snow Depth -    
Sea Level Pressure  
Sea Level Pressure 30.50 in    
Wind  
Wind Speed 0 mph (South)    
Max Wind Speed 6 mph    
Max Gust Speed -    
Visibility 8 miles    
Events      
T = Trace of Precipitation, MM = Missing Value Source: NWS Daily Summary

Daily Weather History Graph

Daily Weather History Graph

Search for Another Location

Airport or City:

Trip Planner

Search our weather history database for the weather conditions in past years. The results will help you decide how hot, cold, wet, or windy it might be!

Date:

Astronomy

Dec. 12, 2013 Rise Set
Actual Time 7:14 AM CST 5:07 PM CST
Civil Twilight 6:46 AM CST 5:34 PM CST
Nautical Twilight 6:15 AM CST 6:06 PM CST
Astronomical Twilight 5:44 AM CST 6:37 PM CST
Moon 2:06 PM CST (12/12) 2:46 AM CST (12/12)
Length of Visible Light 10h 48m
Length of Day
9h 52m
Waxing Gibbous, 80% of the Moon is Illuminated
Dec 12
Waxing Gibbous
Dec 17
Full
Dec 25
Last Quarter
Jan 1
New
Jan 7
First Quarter

Hourly Weather History & Observations

Time (CST) Temp. Windchill Dew Point Humidity Pressure Visibility Wind Dir Wind Speed Gust Speed Precip Events Conditions
12:15 AM 28.4 °F - 28.4 °F 100% 30.55 in 4.0 mi Calm Calm - N/A   Clear
12:35 AM 28.4 °F - 28.4 °F 100% 30.55 in 4.0 mi Calm Calm - N/A   Clear
12:55 AM 26.6 °F - 26.6 °F 100% 30.55 in 4.0 mi Calm Calm - N/A   Clear
1:15 AM 28.4 °F - 28.4 °F 100% 30.55 in 4.0 mi Calm Calm - N/A   Clear
1:35 AM 26.6 °F - 26.6 °F 100% 30.56 in 4.0 mi Calm Calm - N/A   Clear
1:55 AM 26.6 °F - 26.6 °F 100% 30.56 in 4.0 mi Calm Calm - N/A   Clear
2:15 AM 26.6 °F - 26.6 °F 100% 30.57 in 4.0 mi Calm Calm - N/A   Clear
2:35 AM 26.6 °F - 26.6 °F 100% 30.58 in 5.0 mi Calm Calm - N/A   Clear
2:55 AM 26.6 °F - 26.6 °F 100% 30.58 in 4.0 mi Calm Calm - N/A   Clear
3:15 AM 26.6 °F - 26.6 °F 100% 30.58 in 4.0 mi Calm Calm - N/A   Clear
3:35 AM 24.8 °F - 24.8 °F 100% 30.57 in 7.0 mi Calm Calm - N/A   Clear
3:55 AM 23.0 °F - 23.0 °F 100% 30.57 in 5.0 mi Calm Calm - N/A   Clear
4:15 AM 24.8 °F - 24.8 °F 100% 30.57 in 4.0 mi Calm Calm - N/A   Clear
4:35 AM 24.8 °F - 24.8 °F 100% 30.57 in 4.0 mi Calm Calm - N/A   Clear
4:55 AM 23.0 °F - 23.0 °F 100% 30.57 in 5.0 mi Calm Calm - N/A   Mostly Cloudy
5:15 AM 23.0 °F - 23.0 °F 100% 30.57 in 5.0 mi Calm Calm - N/A   Mostly Cloudy
5:35 AM 23.0 °F - 23.0 °F 100% 30.57 in 4.0 mi Calm Calm - N/A   Scattered Clouds
5:55 AM 23.0 °F - 23.0 °F 100% 30.57 in - Calm Calm - N/A   Unknown
6:15 AM 23.0 °F - 23.0 °F 100% 30.57 in - Calm Calm - N/A   Unknown
6:35 AM 23.0 °F - 23.0 °F 100% 30.57 in - Calm Calm - N/A   Unknown
6:55 AM 23.0 °F - 23.0 °F 100% 30.57 in 2.5 mi Calm Calm - N/A   Mostly Cloudy
7:15 AM 23.0 °F - 23.0 °F 100% 30.58 in 2.5 mi Calm Calm - N/A   Mist
7:35 AM 23.0 °F - 23.0 °F 100% 30.58 in 3.0 mi Calm Calm - N/A   Clear
7:55 AM 23.0 °F - 23.0 °F 100% 30.58 in 4.0 mi Calm Calm - N/A   Clear
8:15 AM 24.8 °F - 24.8 °F 100% 30.58 in - Calm Calm - N/A   Unknown
8:35 AM 30.2 °F - 30.2 °F 100% 30.59 in - Calm Calm - N/A   Unknown
8:55 AM 30.2 °F - 30.2 °F 100% 30.59 in - Calm Calm - N/A   Unknown
9:15 AM 32.0 °F - 32.0 °F 100% 30.60 in - Calm Calm - N/A   Unknown
9:35 AM 32.0 °F - 30.2 °F 93% 30.60 in - Calm Calm - N/A   Unknown
9:55 AM 32.0 °F 28.7 °F 26.6 °F 80% 30.59 in - NE 3.5 mph - N/A   Clear
10:15 AM 33.8 °F - 26.6 °F 75% 30.60 in - Calm Calm - N/A   Clear
10:35 AM 33.8 °F - 26.6 °F 75% 30.60 in - Calm Calm - N/A   Clear
10:55 AM 35.6 °F - 26.6 °F 70% 30.59 in - Calm Calm - N/A   Clear
11:15 AM 37.4 °F - 28.4 °F 70% 30.58 in - Calm Calm - N/A   Clear
11:35 AM 39.2 °F - 28.4 °F 65% 30.57 in - Calm Calm - N/A   Clear
11:55 AM 41.0 °F - 28.4 °F 61% 30.55 in - Calm Calm - N/A   Clear
12:15 PM 42.8 °F - 28.4 °F 57% 30.54 in - Calm Calm - N/A   Clear
12:35 PM 42.8 °F - 26.6 °F 53% 30.53 in - Calm Calm - N/A   Clear
12:55 PM 46.4 °F - 23.0 °F 40% 30.52 in - Calm Calm - N/A   Clear
1:15 PM 46.4 °F 43.5 °F 17.6 °F 32% 30.50 in - SW 5.8 mph - N/A   Clear
1:35 PM 46.4 °F 44.3 °F 17.6 °F 32% 30.50 in - SSW 4.6 mph - N/A   Clear
1:55 PM 46.4 °F 45.2 °F 17.6 °F 32% 30.48 in - South 3.5 mph - N/A   Clear
2:15 PM 46.4 °F 44.3 °F 19.4 °F 34% 30.47 in - South 4.6 mph - N/A   Clear
2:35 PM 46.4 °F - 17.6 °F 32% 30.46 in 10.0 mi Calm Calm - N/A   Clear
2:55 PM 46.4 °F 45.2 °F 19.4 °F 34% 30.46 in 10.0 mi SSW 3.5 mph - N/A   Clear
3:15 PM 46.4 °F - 19.4 °F 34% 30.44 in 10.0 mi Calm Calm - N/A   Clear
3:35 PM 46.4 °F - 17.6 °F 32% 30.44 in 10.0 mi Calm Calm - N/A   Clear
3:55 PM 46.4 °F 45.2 °F 17.6 °F 32% 30.43 in 10.0 mi SW 3.5 mph - N/A   Clear
4:15 PM 46.4 °F 45.2 °F 17.6 °F 32% 30.42 in 10.0 mi South 3.5 mph - N/A   Clear
4:35 PM 46.4 °F - 17.6 °F 32% 30.42 in 10.0 mi Calm Calm - N/A   Clear
4:55 PM 44.6 °F - 17.6 °F 34% 30.42 in 10.0 mi Calm Calm - N/A   Clear
5:15 PM 42.8 °F - 21.2 °F 42% 30.41 in 10.0 mi Calm Calm - N/A   Clear
5:35 PM 39.2 °F - 23.0 °F 52% 30.41 in 10.0 mi Calm Calm - N/A   Clear
5:55 PM 37.4 °F - 23.0 °F 56% 30.41 in 10.0 mi Calm Calm - N/A   Clear
6:15 PM 33.8 °F - 26.6 °F 75% 30.40 in 10.0 mi Calm Calm - N/A   Clear
6:35 PM 32.0 °F - 28.4 °F 87% 30.40 in 10.0 mi Calm Calm - N/A   Clear
6:55 PM 32.0 °F - 30.2 °F 93% 30.40 in 10.0 mi Calm Calm - N/A   Clear
7:15 PM 32.0 °F - 30.2 °F 93% 30.40 in 10.0 mi Calm Calm - N/A   Clear
7:35 PM 32.0 °F - 30.2 °F 93% 30.40 in 10.0 mi Calm Calm - N/A   Clear
7:55 PM 32.0 °F - 28.4 °F 87% 30.40 in 10.0 mi Calm Calm - N/A   Clear
8:15 PM 32.0 °F - 30.2 °F 93% 30.40 in 10.0 mi Calm Calm - N/A   Clear
8:35 PM 32.0 °F - 30.2 °F 93% 30.40 in 10.0 mi Calm Calm - N/A   Clear
8:55 PM 32.0 °F - 32.0 °F 100% 30.39 in 10.0 mi Calm Calm - N/A   Clear
9:15 PM 32.0 °F - 30.2 °F 93% 30.39 in 10.0 mi Calm Calm - N/A   Clear
9:35 PM 32.0 °F - 30.2 °F 93% 30.38 in 10.0 mi Calm Calm - N/A   Clear
9:55 PM 32.0 °F - 32.0 °F 100% 30.38 in 10.0 mi Calm Calm - N/A   Clear
10:15 PM 32.0 °F - 30.2 °F 93% 30.37 in 10.0 mi Calm Calm - N/A   Clear
10:35 PM 32.0 °F - 30.2 °F 93% 30.36 in 10.0 mi Calm Calm - N/A   Clear
10:55 PM 32.0 °F - 28.4 °F 87% 30.36 in 10.0 mi Calm Calm - N/A   Clear
11:15 PM 32.0 °F - 30.2 °F 93% 30.35 in 10.0 mi Calm Calm - N/A   Clear
11:35 PM 32.0 °F - 30.2 °F 93% 30.34 in 10.0 mi Calm Calm - N/A   Clear
11:55 PM 32.0 °F - 32.0 °F 100% 30.33 in 10.0 mi Calm Calm - N/A   Clear